User: anonymous
Location: Brno
(49.2000°N, 16.6330°E)
Time: 05:06:23
(UTC+02:00)
Language:

Cosmos 1459 Rocket - Orbit

View from above orbital plane
View from above orbital plane
View from above satellite
View from above satellite

Ground track
Ground track

The orbit data is extracted from the following two-line orbital elements,

1 14059U 83042B   14236.25273731  .00000084  00000-0  67471-4 0  3773
2 14059 082.9700 104.8410 0041284 273.5076 220.3651 13.78457129574130
Epoch (UTC): 24 August 2014 06:03:56
Eccentricity: 0.0041284
inclination: 82.9700°
perigee height: 939 km
apogee height: 999 km
right ascension of ascending node: 104.8410°
argument of perigee: 273.5076°
revolutions per day: 13.78457129
mean anomaly at epoch: 220.3651°
orbit number at epoch: 57413

The dashed part of the orbit path shows where the satellite is in the earth's shadow,  

DLR